Location: Namasale
(1.5000°N, 32.6167°E)
Time: 20:12:42
(UTC+00:00)

deb Explorer IX - Pass Details

Date: 19 April 2021
Orbit: 541 x 1098 km, 38.8° (Epoch: 06 May)

Event Time Altitude Azimuth Distance (km) Brightness Sun altitude
Exits shadow 02:48:45 13° 306° (NW) 1,587 ? -14.4°
Maximum altitude 02:49:40 14° 321° (NW) 1,539 ? -14.2°
Drops below altitude 10° 02:51:52 10° 354° (N) 1,793 ? -13.6°
Sets 02:55:04 0° 20° (NNE) 2,719 ? -12.8°
